COSMOS 2251 DEB, 34814

Orbit data source: Space-Track

COSMOS 2251 DEB, 34814 is space debris in LEO originally from a launch on Wed, 16 Jun 1993 UTC launched from the Plesetsk Missile And Space Complex (PKMTR). The debris from Iridium 33, an American commercial communications satellite, has been tracked extensively since its accidental collision with the defunct Russian satellite Cosmos 2251 in 2009. This event, occurring at high speed in low Earth orbit (LEO), generated thousands of pieces of space debris, significantly increasing the risk of further collisions. The Iridium 33 debris cloud has impacted space traffic management and orbital debris mitigation strategies, making it a subject of ongoing study in space situational awareness.

Loading next visibility...
Identifier
34814, 1993-036ABD
Orbit
LEO
Country
Flag of CISCIS
Related business
Manufacturer
Unknown
Mission
Spacecraft
Bus & Motor
Unknown
Mass
Unknown
Launch date (UTC)
1993-06-16 (33 years ago)
Launch vehicle
Unknown
Launch site
Plesetsk Missile And Space Complex (PKMTR)
Object type
Payload
Rocket body
Debris
Shape & HBR
Unknown shape, 0.1 m
Radar Cross Section
Small (<0.1 m²)

Expand to show TLE details & history
Last TLE update: 1 day ago

TLE from 1 day ago
0 COSMOS 2251 DEB
1 34814U 93036ABD 25354.64614492  .00001410  00000-0  47694-3 0  9995
2 34814  73.8958 310.7738 0055669 198.7366 346.1434 14.36924529874461
Epoch: 2025-12-20T15:30Z
TLE epoch observation values (Epoch: 2025-12-20T15:30:26.921Z)
Latitude
-4.67952°
Longitude
170.03859°
Altitude
733.389 km
Speed
7.508 km/s
True Right ascension
08h 48m 28s
True Declination
-4° 39' 06"
Sunlit
Object was in full shadow at epoch
Visualization orbit readout
Latitude
Unknown
Longitude
Unknown
Altitude
Unknown
Speed
Unknown
Apparent Right ascension
Unknown
Apparent Declination
Unknown
Sunlit
N/A
Visualization observer readout
Local Sidereal Time
14:14:24
Azimuth
Unknown
Elevation
Unknown
Doppler factor
Unknown
Orbital elements
Apogee altitude
806.085 km
Perigee altitude
726.54 km
Semi-major axis
7,144.45 km
Eccentricity
0.00557
Inclination
73.8958°
RAAN
310.7738°
Arg. of periapsis
198.7366°
True anomaly
345.98958°
Mean anomaly
346.1434°
Eccentric anomaly
346.0666°
Mean motion
3.5941 °/min
Orbital period
100.16 mins
BSTAR
0.00047694
Loading maneuver chart data...
Computing Atmospheric mass density...
Loading historical data...
Loading historical data...
Loading historical data...
Loading historical data...
Loading historical data...
Loading historical data...
Loading historical data...

Documentation

Showing up to 5 results
|